[[{"header":{"parameterUnit":"m.s-1","parameterCategory":1,"la1":30.2991,"la2":30.254,"lo1":-89.0895,"lo2":-89.0444,"dy":0.0017,"dx":0.0017,"nx":28,"ny":28,"refTime":"2023-08-28T09:00:00:Z","depth":0,"parameterNumber":2,"parameterNumberName":"U-component_of_WINDS"},"data":[0,0,0,0,0,0,0,0,0,0,0,0,0,0,0,0,0,0,0,0,0,0,0,0,0,0,0,0,0,0,0,0,0,0,0,0,0,0,0,0,0,0,0,0,0,0,0,0,0,0,0,0,0,0,0,0,0,0,1.0224,1.0225,0,1.032,1.0321,1.0322,1.0383,1.0384,1.0384,1.0384,1.0475,1.0477,1.0479,0,0,0,0,0,0,0,0,0,0,0,0,0,1.0082,1.0084,1.0223,1.0225,1.0226,1.032,1.0321,1.0323,1.0383,1.0384,1.0384,1.0384,1.0474,1.0476,1.0479,0,0,0,0,0,0,0,0,0,0,0,0,0,1.0157,1.0085,1.0223,1.0268,1.0273,1.032,1.0321,1.0323,1.0383,1.0384,1.0384,1.0385,1.0473,1.0476,1.0479,1.0487,0,0,1.0489,1.049,0,0,0,0,0,0,0,0,1.0153,1.0162,1.026,1.0265,1.027,1.0341,1.0305,1.0378,1.0383,1.0341,1.0384,1.0385,1.0429,1.0436,1.0452,1.0492,1.0495,1.0489,1.0491,1.0492,1.0493,0,0,0,0,0,0,0,1.0147,1.0158,1.0262,1.0261,1.0268,1.028,1.0291,1.0319,1.038,1.0344,1.0349,1.036,1.0432,1.0449,1.0455,1.0497,1.0489,1.0492,1.0494,1.0495,1.0546,1.0546,0,0,0,0,0,0,1.0136,1.0154,1.0258,1.0264,1.0212,1.0282,1.0294,1.0317,1.038,1.0391,1.036,1.0363,1.0444,1.0451,1.0458,1.0472,1.0492,1.0495,1.0497,1.0547,1.0546,1.0545,0,0,0,0,0,0,1.0133,1.0145,1.0255,1.021,1.0225,1.0284,1.0309,1.0319,1.0336,1.0392,1.0402,1.0367,1.0444,1.0454,1.048,1.0475,1.0496,1.0499,1.0547,1.0546,1.0546,1.0498,0,0,0,0,0,0,1.0129,1.0144,1.015,1.021,1.0228,1.0277,1.0309,1.032,1.0343,1.0348,1.0401,1.0411,1.0446,1.0475,1.0483,1.048,1.0502,1.0548,1.0547,1.0546,1.05,1.0495,1.0492,0,0,0,0,0,1.0124,1.013,1.015,1.0162,1.0237,1.0277,1.0286,1.0329,1.0342,1.0347,1.0382,1.0409,1.0475,1.0477,1.0487,1.0485,1.0548,1.0547,1.0546,1.0502,1.0496,1.0492,0,0,0,0,0,0,1.0064,1.0139,1.0161,1.0189,1.0226,1.0287,1.0295,1.0322,1.0354,1.0357,1.0406,1.0417,1.0438,1.0464,1.0465,1.0495,1.0514,1.0515,1.0478,1.0473,1.0469,1.0461,1.0504,0,0,0,0,0,1.0055,1.0085,1.0147,1.0165,1.0183,1.0235,1.0254,1.0284,1.0324,1.0339,1.0377,1.0412,1.0441,1.0458,1.0488,1.0504,1.0516,1.0507,1.0503,1.0499,1.0499,1.0508,1.0505,1.0542,1.0542,1.0542,0,0,1.0035,1.008,1.0095,1.0154,1.0187,1.0214,1.0248,1.0275,1.0294,1.0342,1.037,1.0399,1.0441,1.0462,1.0473,1.0484,1.0491,1.0498,1.0494,1.0496,1.0507,1.0503,1.05,1.0541,1.0541,1.0541,0,0,1.0012,1.005,1.0069,1.0101,1.0152,1.0186,1.0191,1.0248,1.0269,1.0298,1.0335,1.0357,1.0406,1.0434,1.0455,1.0443,1.0467,1.045,1.0428,1.0437,1.0434,1.0431,1.0426,1.0423,1.045,1.045,1.045,0,0.998,1.0025,1.0074,1.01,1.0123,1.0171,1.0189,1.0217,1.0273,1.0287,1.0299,1.0361,1.0393,1.0421,1.0418,1.0434,1.0438,1.0444,1.0431,1.0429,1.0427,1.0422,1.042,1.0448,1.0448,1.0448,1.0448,0,0.9982,1.0013,1.0021,1.0078,1.0102,1.0123,1.0173,1.0192,1.0219,1.0251,1.0279,1.0319,1.0357,1.0366,1.0392,1.0397,1.0403,1.0422,1.0442,1.0421,1.0417,1.0415,1.0444,1.0445,1.0446,1.0446,0,0,0.9924,1.0009,1.0011,1.0036,1.0095,1.0118,1.014,1.018,1.0195,1.0231,1.0249,1.0289,1.0308,1.0331,1.0361,1.0368,1.0355,1.0387,1.0389,1.0379,1.0361,1.0345,1.0343,1.0372,1.0372,1.0372,1.0357,0,0.991,0.9956,1.0,1.0029,1.0056,1.0102,1.0121,1.0157,1.0188,1.0213,1.0246,1.0273,1.0296,1.0311,1.032,1.0354,1.0352,1.0356,1.0387,1.0387,1.0374,1.0341,1.0325,1.0309,1.0356,1.0356,1.0356,0,0.9899,0.9936,0.9969,1.0025,1.0038,1.0055,1.0094,1.0119,1.016,1.0182,1.0208,1.024,1.0262,1.028,1.0311,1.0313,1.0328,1.0346,1.0347,1.035,1.037,1.0342,1.0305,1.0302,1.0354,1.0354,1.0355,0,0.9852,0.991,0.9937,0.9958,1.0024,1.0035,1.0062,1.0104,1.0125,1.0159,1.0173,1.0207,1.0226,1.0251,1.029,1.03,1.0316,1.0337,1.0332,1.0331,1.0333,1.0332,1.0296,1.0344,1.0344,1.0344,1.0344,0,0.983,0.9848,0.9918,0.9934,0.9954,1.0004,1.0021,1.0052,1.0089,1.011,1.015,1.0168,1.0219,1.0243,1.0273,1.0293,1.0301,1.0317,1.0325,1.0313,1.0311,1.0323,1.0324,1.0343,1.0343,1.0344,1.0344,0,0.9781,0.9829,0.9861,0.9922,0.9938,0.995,1.0,1.0016,1.0049,1.0075,1.0084,1.0135,1.0164,1.0206,1.0248,1.0268,1.0283,1.0296,1.027,1.0274,1.0266,1.0266,1.0236,1.0234,1.0283,1.0283,1.0282,0,0.9764,0.9779,0.9843,0.9861,0.9888,0.9917,0.9939,0.9988,1.0009,1.0057,1.0066,1.01,1.0129,1.0173,1.0212,1.0243,1.0257,1.0244,1.0262,1.0249,1.0255,1.0253,1.0254,1.0239,1.0239,1.0238,1.0238,0,0.9728,0.9751,0.9784,0.9824,0.9851,0.9884,0.9919,0.993,0.9986,1.0007,1.0039,1.0062,1.0105,1.0137,1.0174,1.0199,1.0226,1.0232,1.0232,1.022,1.0204,1.0211,1.0257,1.0232,1.0233,1.0233,1.0233,1.0234,0.9694,0.9709,0.9756,0.9791,0.9823,0.9854,0.9872,0.9909,0.9938,0.9979,1.0005,1.0035,1.0074,1.0127,1.0151,1.0173,1.0185,1.0185,1.0185,1.0184,1.018,1.0201,1.018,1.018,1.0181,1.0181,1.0181,0,0.9659,0.9692,0.9723,0.9772,0.9798,0.9826,0.9866,0.9885,0.9912,0.9948,0.9976,1.0012,1.0043,1.0085,1.0118,1.0128,1.0141,1.0134,1.0133,1.0138,1.0168,1.0164,1.0123,1.0123,1.0123,1.0123,1.0123,1.0123,0.9644,0.9671,0.9699,0.9741,0.9773,0.9806,0.9826,0.9854,0.9883,0.9923,0.995,0.9978,1.0015,1.0051,1.008,1.0091,1.0101,1.009,1.0105,1.0131,1.0137,1.0141,1.0138,1.0092,1.0092,1.0073,1.0073,1.0073]},{"header":{"parameterUnit":"m.s-1","parameterCategory":1,"la1":30.2991,"la2":30.254,"lo1":-89.0895,"lo2":-89.0444,"dy":0.0017,"dx":0.0017,"nx":28,"ny":28,"refTime":"2023-08-28T09:00:00:Z","depth":0,"parameterNumber":3,"parameterNumberName":"V-component_of_WINDS"},"data":[0,0,0,0,0,0,0,0,0,0,0,0,0,0,0,0,0,0,0,0,0,0,0,0,0,0,0,0,0,0,0,0,0,0,0,0,0,0,0,0,0,0,0,0,0,0,0,0,0,0,0,0,0,0,0,0,0,0,-2.2771,-2.2771,0,-2.2807,-2.2807,-2.2808,-2.2723,-2.2721,-2.2718,-2.2715,-2.2761,-2.2764,-2.2768,0,0,0,0,0,0,0,0,0,0,0,0,0,-2.2632,-2.2635,-2.2771,-2.2771,-2.2771,-2.2807,-2.2807,-2.2808,-2.2724,-2.2721,-2.2717,-2.2714,-2.2759,-2.2764,-2.2768,0,0,0,0,0,0,0,0,0,0,0,0,0,-2.2683,-2.2636,-2.277,-2.2734,-2.2731,-2.2806,-2.2807,-2.2808,-2.2725,-2.272,-2.2716,-2.2713,-2.2758,-2.2763,-2.2769,-2.2885,0,0,-2.2786,-2.2788,0,0,0,0,0,0,0,0,-2.268,-2.2688,-2.2739,-2.2736,-2.2733,-2.2756,-2.2775,-2.2834,-2.2726,-2.2727,-2.2715,-2.2711,-2.2763,-2.2768,-2.2784,-2.2887,-2.2889,-2.2786,-2.279,-2.2792,-2.2794,0,0,0,0,0,0,0,-2.2677,-2.2686,-2.2785,-2.2739,-2.2736,-2.2716,-2.2719,-2.2786,-2.2768,-2.2727,-2.2721,-2.2726,-2.2761,-2.2779,-2.2784,-2.2889,-2.2786,-2.2791,-2.2795,-2.2797,-2.3083,-2.3087,0,0,0,0,0,0,-2.2677,-2.2684,-2.2784,-2.2786,-2.2696,-2.2722,-2.2725,-2.2753,-2.2767,-2.2765,-2.2729,-2.2722,-2.2771,-2.2778,-2.2786,-2.2919,-2.2792,-2.2797,-2.2801,-2.3079,-2.3084,-2.3089,0,0,0,0,0,0,-2.2675,-2.2687,-2.2782,-2.2733,-2.2744,-2.2729,-2.2761,-2.2756,-2.2774,-2.2768,-2.2765,-2.275,-2.2768,-2.2778,-2.2859,-2.2919,-2.28,-2.2805,-2.3074,-2.3081,-2.3087,-2.3188,0,0,0,0,0,0,-2.2671,-2.2687,-2.273,-2.2735,-2.2747,-2.2855,-2.2765,-2.276,-2.2783,-2.2773,-2.2788,-2.2786,-2.2766,-2.2851,-2.2864,-2.2925,-2.2809,-2.3069,-2.3077,-2.3085,-2.318,-2.3197,-2.3213,0,0,0,0,0,-2.2667,-2.276,-2.2733,-2.2745,-2.2801,-2.2858,-2.2865,-2.2838,-2.2788,-2.2831,-2.2827,-2.2786,-2.291,-2.286,-2.2874,-2.2938,-2.3065,-2.3075,-2.3084,-2.3172,-2.3194,-2.3212,0,0,0,0,0,0,-2.2768,-2.2761,-2.273,-2.2828,-2.2844,-2.2844,-2.2899,-2.2862,-2.2895,-2.2886,-2.2852,-2.2856,-2.2943,-2.2948,-2.2892,-2.3047,-2.2979,-2.2992,-2.3041,-2.3062,-2.3078,-2.3076,-2.2814,0,0,0,0,0,-2.2801,-2.2846,-2.2838,-2.2925,-2.2934,-2.2915,-2.2939,-2.2915,-2.2932,-2.294,-2.2941,-2.2961,-2.3003,-2.3033,-2.3072,-2.3179,-2.318,-2.3229,-2.3246,-2.3259,-2.3271,-2.3324,-2.3346,-2.312,-2.312,-2.312,0,0,-2.2872,-2.2873,-2.2905,-2.2946,-2.2955,-2.3004,-2.2922,-2.2978,-2.3014,-2.2949,-2.3024,-2.3026,-2.3045,-2.3138,-2.3179,-2.3145,-2.3333,-2.3271,-2.3282,-2.3287,-2.3337,-2.3358,-2.3377,-2.3127,-2.3126,-2.3125,0,0,-2.3024,-2.303,-2.3101,-2.311,-2.3124,-2.3109,-2.3126,-2.313,-2.3128,-2.3201,-2.3152,-2.3195,-2.327,-2.3284,-2.3302,-2.3452,-2.3414,-2.3466,-2.3553,-2.3605,-2.3623,-2.3639,-2.3691,-2.371,-2.3477,-2.3478,-2.3478,0,-2.3111,-2.318,-2.3143,-2.32,-2.3219,-2.3157,-2.3228,-2.324,-2.3268,-2.3283,-2.3243,-2.3332,-2.3341,-2.3435,-2.347,-2.3487,-2.3505,-2.3465,-2.3623,-2.3638,-2.3652,-2.3701,-2.3721,-2.3484,-2.3483,-2.3482,-2.3482,0,-2.3284,-2.3333,-2.3389,-2.3411,-2.3436,-2.3501,-2.3474,-2.3503,-2.3476,-2.3465,-2.3539,-2.3546,-2.3584,-2.3604,-2.3581,-2.3694,-2.3672,-2.3628,-2.3559,-2.368,-2.3726,-2.3745,-2.3492,-2.349,-2.3488,-2.3487,0,0,-2.3507,-2.3502,-2.3524,-2.3531,-2.3538,-2.3576,-2.3636,-2.3669,-2.3694,-2.3714,-2.3763,-2.3824,-2.3782,-2.3801,-2.3778,-2.3824,-2.3939,-2.3774,-2.3774,-2.3803,-2.4061,-2.4094,-2.4117,-2.3913,-2.3916,-2.3919,-2.4059,0,-2.3656,-2.3756,-2.3722,-2.3825,-2.3868,-2.3806,-2.3858,-2.3869,-2.3859,-2.3895,-2.3885,-2.3928,-2.387,-2.3881,-2.3923,-2.3916,-2.399,-2.3905,-2.3959,-2.3962,-2.3957,-2.4141,-2.4177,-2.4309,-2.4077,-2.408,-2.4082,0,-2.3845,-2.3866,-2.3972,-2.3966,-2.3983,-2.403,-2.4055,-2.4089,-2.4099,-2.4088,-2.4106,-2.4071,-2.413,-2.4059,-2.4138,-2.4081,-2.41,-2.41,-2.4104,-2.4109,-2.403,-2.415,-2.4351,-2.4371,-2.411,-2.4108,-2.4106,0,-2.3994,-2.405,-2.4118,-2.4127,-2.4123,-2.4157,-2.4158,-2.4162,-2.4182,-2.4204,-2.4217,-2.4247,-2.4264,-2.4288,-2.4261,-2.4212,-2.4344,-2.4271,-2.4337,-2.4338,-2.437,-2.4368,-2.4576,-2.4382,-2.4382,-2.4381,-2.4381,0,-2.4165,-2.4232,-2.4185,-2.4228,-2.4299,-2.4258,-2.4332,-2.4325,-2.4329,-2.4369,-2.4319,-2.4359,-2.4321,-2.4357,-2.4337,-2.4405,-2.4413,-2.4406,-2.44,-2.4411,-2.4412,-2.4424,-2.4415,-2.4387,-2.4385,-2.4384,-2.4383,0,-2.4346,-2.4317,-2.4387,-2.4375,-2.4373,-2.4427,-2.4417,-2.4456,-2.444,-2.4492,-2.4502,-2.4478,-2.4517,-2.4492,-2.4533,-2.4519,-2.4607,-2.4589,-2.4603,-2.4598,-2.4665,-2.4659,-2.4889,-2.4916,-2.4704,-2.4707,-2.4708,0,-2.4456,-2.4505,-2.4496,-2.4517,-2.4519,-2.4556,-2.4574,-2.4534,-2.4556,-2.4566,-2.4604,-2.4637,-2.4663,-2.4728,-2.4716,-2.4745,-2.4727,-2.4805,-2.4732,-2.4739,-2.4727,-2.4724,-2.4728,-2.4821,-2.4823,-2.4826,-2.4827,0,-2.4656,-2.4637,-2.4664,-2.4685,-2.4706,-2.4722,-2.4734,-2.4755,-2.4714,-2.4741,-2.4778,-2.4797,-2.4834,-2.4869,-2.4892,-2.4894,-2.4854,-2.4849,-2.4866,-2.4878,-2.4884,-2.488,-2.4643,-2.4845,-2.4843,-2.4842,-2.4841,-2.484,-2.4804,-2.4843,-2.484,-2.4871,-2.4874,-2.4884,-2.4919,-2.4904,-2.4933,-2.4959,-2.4934,-2.4978,-2.4982,-2.5009,-2.5014,-2.5048,-2.5017,-2.5042,-2.5048,-2.5055,-2.5063,-2.4877,-2.5053,-2.5052,-2.5052,-2.5051,-2.5051,0,-2.5,-2.4993,-2.5021,-2.5036,-2.5059,-2.5014,-2.5023,-2.5047,-2.5084,-2.509,-2.5113,-2.5154,-2.5185,-2.5172,-2.5199,-2.5229,-2.5211,-2.5237,-2.5235,-2.5236,-2.5091,-2.5073,-2.5251,-2.5251,-2.5251,-2.5251,-2.5251,-2.5251,-2.5104,-2.5166,-2.5146,-2.5208,-2.5202,-2.5241,-2.525,-2.5259,-2.5262,-2.5308,-2.5332,-2.5322,-2.532,-2.5345,-2.5371,-2.5366,-2.5379,-2.5412,-2.5401,-2.5266,-2.5247,-2.5228,-2.5211,-2.5415,-2.5415,-2.5543,-2.5544,-2.5545]}]]